KD4TJG Weather Reports


Display with metric or nautical units.
time (UTC)temp
F
wind
direction
speed
MPH
gust
MPH
rain 1hr
in
rain 24hr
in
rain mn
in
humidity
%
barometer
mb
20260904224025 86 108 5.0 15.0 0.00 0.00 0.00 63 1014.8
20260904223524 87 116 7.0 15.0 0.00 0.00 0.00 61 1014.8
20260904223208 89 111 7.0 13.0 0.00 0.00 0.00 59 1016.8
20260904223101 89 102 7.0 17.0 0.00 0.00 0.00 58 1015.0
20260904222525 91 112 8.0 17.0 0.00 0.00 0.00 55 1014.7
20260904222209 93 112 1.0 8.0 0.00 0.00 0.00 53 1016.8
20260904222024 93 0 1.0 4.0 0.00 0.00 0.00 51 1014.5
20260904221550 94 0 1.0 10.0 0.00 0.00 0.00 52 1014.5
20260904221217 94 320 4.0 11.0 0.00 0.00 0.00 52 1016.4
20260904221024 94 130 5.0 12.0 0.00 0.00 0.00 51 1014.4
20260904220524 94 217 5.0 12.0 0.00 0.00 0.00 51 1014.1
20260904220229 95 247 4.0 14.0 0.00 0.00 0.00 51 1016.2
20260904220044 94 250 4.0 12.0 0.00 0.00 0.00 52 1014.2
20260904215524 95 1 3.0 15.0 0.00 0.00 0.00 54 1014.0
20260904215241 95 117 4.0 14.0 0.00 0.00 0.00 52 1016.0
20260904215024 95 290 5.0 15.0 0.00 0.00 0.00 52 1013.9
20260904214552 95 223 4.0 9.0 0.00 0.00 0.00 50 1013.7
20260904214212 95 262 1.0 7.0 0.00 0.00 0.00 51 1015.6
20260904214024 95 281 2.0 7.0 0.00 0.00 0.00 51 1013.6
20260904213529 95 240 1.0 5.0 0.00 0.00 0.00 51 1013.6
20260904213137 95 249 2.0 7.0 0.00 0.00 0.00 52 1015.6
20260904213048 94 262 2.0 8.0 0.00 0.00 0.00 52 1013.5
20260904212527 93 234 3.0 8.0 0.00 0.00 0.00 52 1013.4
20260904212143 94 174 1.0 6.0 0.00 0.00 0.00 52 1015.6
20260904212024 93 189 3.0 7.0 0.00 0.00 0.00 52 1013.6
20260904211549 94 170 2.0 7.0 0.00 0.00 0.00 52 1013.6
20260904211149 94 188 1.0 6.0 0.00 0.00 0.00 51 1015.7
20260904211026 94 174 3.0 7.0 0.00 0.00 0.00 51 1013.7
20260904210524 94 183 2.0 6.0 0.00 0.00 0.00 51 1013.7
20260904210140 95 234 2.0 6.0 0.00 0.00 0.00 50 1015.7
20260904210059 94 177 2.0 7.0 0.00 0.00 0.00 50 1013.7
20260904205528 94 208 2.0 8.0 0.00 0.00 0.00 49 1013.8
20260904205139 95 203 2.0 9.0 0.00 0.00 0.00 49 1015.7
20260904205025 95 175 3.0 10.0 0.00 0.00 0.00 49 1013.5
20260904204549 95 179 2.0 10.0 0.00 0.00 0.00 48 1013.4
20260904204149 96 195 4.0 9.0 0.00 0.00 0.00 46 1015.5
20260904204029 96 218 5.0 10.0 0.00 0.00 0.00 46 1013.5
20260904203525 97 209 6.0 10.0 0.00 0.00 0.00 45 1013.5
20260904203142 98 193 3.0 8.0 0.00 0.00 0.00 46 1015.4
20260904203102 98 266 3.0 9.0 0.00 0.00 0.00 45 1013.4
20260904202525 97 132 4.0 9.0 0.00 0.00 0.00 47 1013.4
20260904202129 98 194 4.0 8.0 0.00 0.00 0.00 46 1015.4
20260904202026 97 234 5.0 9.0 0.00 0.00 0.00 47 1013.3
20260904201551 98 181 4.0 9.0 0.00 0.00 0.00 46 1013.4
20260904201122 98 176 3.0 8.0 0.00 0.00 0.00 48 1015.6
20260904201024 98 191 2.0 9.0 0.00 0.00 0.00 47 1013.6
20260904200527 98 184 3.0 7.0 0.00 0.00 0.00 47 1013.6
20260904200115 99 159 2.0 8.0 0.00 0.00 0.00 46 1015.6
20260904200049 98 199 1.0 9.0 0.00 0.00 0.00 46 1013.7
20260904195526 98 259 4.0 9.0 0.00 0.00 0.00 46 1013.6
20260904195053 99 208 4.0 9.0 0.00 0.00 0.00 46 1015.7
20260904195024 98 233 4.0 9.0 0.00 0.00 0.00 47 1013.7
20260904194547 98 186 5.0 11.0 0.00 0.00 0.00 47 1013.9
20260904194045 98 186 4.0 9.0 0.00 0.00 0.00 48 1016.1
20260904194024 98 206 5.0 11.0 0.00 0.00 0.00 48 1014.0
20260904193523 96 235 5.0 11.0 0.00 0.00 0.00 49 1014.1
20260904193047 97 293 3.0 9.0 0.00 0.00 0.00 47 1014.2
20260904193037 97 270 3.0 8.0 0.00 0.00 0.00 47 1016.2
20260904192523 98 195 4.0 10.0 0.00 0.00 0.00 46 1014.2
20260904192034 99 185 4.0 8.0 0.00 0.00 0.00 48 1016.4
20260904192025 99 193 6.0 10.0 0.00 0.00 0.00 48 1014.4
20260904191554 99 233 5.0 10.0 0.00 0.00 0.00 47 1014.4
20260904191043 99 221 2.0 7.0 0.00 0.00 0.00 49 1016.7
20260904191024 98 255 2.0 8.0 0.00 0.00 0.00 51 1014.6
20260904190525 96 217 3.0 8.0 0.00 0.00 0.00 50 1014.7
20260904190104 97 136 4.0 10.0 0.00 0.00 0.00 48 1016.8
20260904190047 97 134 3.0 13.0 0.00 0.00 0.00 48 1014.7
20260904185526 98 181 3.0 13.0 0.00 0.00 0.00 47 1014.9
20260904185048 98 195 5.0 10.0 0.00 0.00 0.00 49 1016.9
20260904185023 98 174 6.0 13.0 0.00 0.00 0.00 49 1015.0
20260904184545 97 185 5.0 11.0 0.00 0.00 0.00 49 1015.0
20260904184025 98 187 5.0 11.0 0.00 0.00 0.00 47 1015.0
20260904183525 98 211 2.0 8.0 0.00 0.00 0.00 49 1015.2
20260904183053 97 141 3.0 8.0 0.00 0.00 0.00 49 1015.2
20260904182524 96 133 4.0 9.0 0.00 0.00 0.00 51 1015.2
20260904182027 97 175 3.0 11.0 0.00 0.00 0.00 49 1015.4
20260904181823 98 131 4.0 9.0 0.00 0.00 0.00 50 1017.5
20260904181547 97 220 6.0 11.0 0.00 0.00 0.00 49 1015.4
20260904181025 98 134 5.0 8.0 0.00 0.00 0.00 48 1015.5
20260904180838 98 158 3.0 8.0 0.00 0.00 0.00 50 1017.5
20260904180527 98 0 4.0 11.0 0.00 0.00 0.00 50 1015.5
20260904180042 98 72 5.0 11.0 0.00 0.00 0.00 50 1015.6
20260904175836 98 131 3.0 8.0 0.00 0.00 0.00 50 1017.7
20260904175530 97 163 2.0 10.0 0.00 0.00 0.00 49 1015.6
20260904175024 97 169 4.0 10.0 0.00 0.00 0.00 49 1015.8
20260904174815 98 199 3.0 8.0 0.00 0.00 0.00 50 1017.8
20260904174556 97 228 4.0 9.0 0.00 0.00 0.00 51 1015.8
20260904174025 96 61 3.0 8.0 0.00 0.00 0.00 51 1015.8
20260904173816 97 122 3.0 7.0 0.00 0.00 0.00 53 1017.9
20260904173524 97 91 2.0 9.0 0.00 0.00 0.00 50 1015.8
20260904173053 97 241 5.0 9.0 0.00 0.00 0.00 50 1015.9
20260904172829 98 238 4.0 9.0 0.00 0.00 0.00 51 1017.9
20260904172527 97 167 3.0 11.0 0.00 0.00 0.00 52 1015.9
20260904172028 97 229 6.0 11.0 0.00 0.00 0.00 52 1016.0
20260904171852 97 210 4.0 9.0 0.00 0.00 0.00 53 1017.9
20260904171542 96 203 4.0 9.0 0.00 0.00 0.00 53 1015.9
20260904171025 97 218 3.0 7.0 0.00 0.00 0.00 51 1015.9
20260904170913 98 255 2.0 6.0 0.00 0.00 0.00 52 1018.0
20260904170527 97 45 3.0 8.0 0.00 0.00 0.00 55 1016.1
20260904170053 97 242 4.0 8.0 0.00 0.00 0.00 50 1016.0
20260904165846 97 173 3.0 6.0 0.00 0.00 0.00 53 1018.1
20260904165525 96 141 4.0 8.0 0.00 0.00 0.00 53 1016.0
20260904165025 96 153 3.0 7.0 0.00 0.00 0.00 54 1016.1
20260904164845 96 172 2.0 7.0 0.00 0.00 0.00 53 1018.1
20260904164552 96 178 2.0 8.0 0.00 0.00 0.00 53 1016.1
20260904164024 96 223 3.0 8.0 0.00 0.00 0.00 53 1016.2
20260904163524 95 85 2.0 8.0 0.00 0.00 0.00 54 1016.3
20260904163051 95 151 3.0 7.0 0.00 0.00 0.00 55 1016.4
20260904162705 96 226 2.0 6.0 0.00 0.00 0.00 56 1018.5
20260904162528 95 108 3.0 7.0 0.00 0.00 0.00 56 1016.5
20260904162022 95 154 1.0 6.0 0.00 0.00 0.00 56 1016.5
20260904161634 95 216 2.0 7.0 0.00 0.00 0.00 57 1018.6
20260904161543 95 256 1.0 8.0 0.00 0.00 0.00 56 1016.7
20260904161023 94 154 2.0 8.0 0.00 0.00 0.00 58 1016.7
20260904160651 95 197 2.0 7.0 0.00 0.00 0.00 58 1018.8
20260904160527 94 149 2.0 8.0 0.00 0.00 0.00 58 1016.7
20260904160057 94 280 2.0 7.0 0.00 0.00 0.00 58 1016.7
20260904155710 94 217 3.0 6.0 0.00 0.00 0.00 58 1018.7
20260904155526 94 189 4.0 7.0 0.00 0.00 0.00 58 1016.7
20260904155024 94 197 2.0 7.0 0.00 0.00 0.00 60 1016.8
20260904154723 94 170 3.0 6.0 0.00 0.00 0.00 58 1018.8
20260904154552 93 104 4.0 7.0 0.00 0.00 0.00 58 1016.8
20260904154026 93 135 3.0 7.0 0.00 0.00 0.00 61 1016.8
20260904153722 93 164 2.0 6.0 0.00 0.00 0.00 59 1018.7
20260904153525 93 131 2.0 7.0 0.00 0.00 0.00 62 1016.8
20260904153048 92 154 2.0 8.0 0.00 0.00 0.00 60 1016.8
20260904152733 93 189 3.0 6.0 0.00 0.00 0.00 61 1018.9
20260904152524 92 212 3.0 8.0 0.00 0.00 0.00 62 1016.9
20260904152026 92 124 3.0 7.0 0.00 0.00 0.00 63 1016.9
20260904151712 92 235 3.0 7.0 0.00 0.00 0.00 65 1018.9
20260904151544 91 183 3.0 7.0 0.00 0.00 0.00 64 1017.0
20260904151024 91 221 3.0 8.0 0.00 0.00 0.00 64 1016.9
20260904150700 91 226 3.0 7.0 0.00 0.00 0.00 65 1019.1
20260904150524 90 175 3.0 8.0 0.00 0.00 0.00 65 1017.0
20260904150053 90 170 2.0 5.0 0.00 0.00 0.00 67 1017.0
20260904145658 90 185 1.0 6.0 0.00 0.00 0.00 66 1019.1
20260904145525 89 199 2.0 7.0 0.00 0.00 0.00 66 1017.0
20260904145025 89 197 1.0 7.0 0.00 0.00 0.00 68 1016.9
20260904144624 89 246 3.0 6.0 0.00 0.00 0.00 68 1019.0
20260904144605 89 181 3.0 7.0 0.00 0.00 0.00 68 1017.0
20260904144028 88 206 3.0 7.0 0.00 0.00 0.00 68 1017.1
20260904143606 88 220 2.0 5.0 0.00 0.00 0.00 71 1019.2
20260904143526 88 161 3.0 6.0 0.00 0.00 0.00 70 1017.2
20260904143057 88 183 2.0 6.0 0.00 0.00 0.00 70 1017.2
20260904142542 88 239 1.0 5.0 0.00 0.00 0.00 70 1019.2
20260904142523 87 249 2.0 7.0 0.00 0.00 0.00 70 1017.2
20260904142026 87 194 3.0 7.0 0.00 0.00 0.00 71 1017.3
20260904141542 86 121 1.0 7.0 0.00 0.00 0.00 73 1017.3
20260904141526 87 121 1.0 7.0 0.00 0.00 0.00 73 1019.3
20260904141024 86 284 2.0 8.0 0.00 0.00 0.00 73 1017.3
20260904140525 86 189 3.0 8.0 0.00 0.00 0.00 73 1017.2
20260904140458 86 199 2.0 7.0 0.00 0.00 0.00 73 1019.2
20260904140054 85 126 3.0 7.0 0.00 0.00 0.00 73 1017.2
20260904135525 85 210 2.0 7.0 0.00 0.00 0.00 75 1017.1
20260904135433 85 212 2.0 6.0 0.00 0.00 0.00 75 1019.2
20260904135024 84 262 2.0 7.0 0.00 0.00 0.00 74 1017.2
20260904134549 84 227 3.0 7.0 0.00 0.00 0.00 75 1017.2
20260904134447 85 197 3.0 6.0 0.00 0.00 0.00 75 1019.1
20260904134029 84 199 3.0 7.0 0.00 0.00 0.00 76 1017.1
20260904133523 83 257 2.0 8.0 0.00 0.00 0.00 78 1017.2
20260904133434 84 289 3.0 7.0 0.00 0.00 0.00 77 1019.3
20260904133055 83 239 4.0 8.0 0.00 0.00 0.00 77 1017.3
20260904132525 83 164 3.0 7.0 0.00 0.00 0.00 78 1017.2
20260904132431 83 168 3.0 7.0 0.00 0.00 0.00 78 1019.2
20260904132020 82 285 3.0 7.0 0.00 0.00 0.00 78 1017.2
20260904131551 82 225 3.0 8.0 0.00 0.00 0.00 79 1017.3
20260904131024 81 254 3.0 8.0 0.00 0.00 0.00 80 1017.4
20260904130524 81 174 3.0 7.0 0.00 0.00 0.00 80 1017.4
20260904130250 82 280 1.0 4.0 0.00 0.00 0.00 80 1019.5
20260904130048 81 253 0.0 4.0 0.00 0.00 0.00 81 1017.5
20260904125525 81 126 2.0 4.0 0.00 0.00 0.00 81 1017.5
20260904125315 81 228 1.0 3.0 0.00 0.00 0.00 82 1019.5
20260904125025 80 0 1.0 3.0 0.00 0.00 0.00 82 1017.4
20260904124546 80 196 1.0 3.0 0.00 0.00 0.00 83 1017.5
20260904124307 80 184 0.0 0.0 0.00 0.00 0.00 83 1019.6
20260904124023 79 0 0.0 4.0 0.00 0.00 0.00 83 1017.6
20260904123528 79 255 0.0 4.0 0.00 0.00 0.00 84 1017.6
20260904123313 79 255 0.0 3.0 0.00 0.00 0.00 84 1019.6
20260904123052 78 206 1.0 4.0 0.00 0.00 0.00 85 1017.6
20260904122530 78 201 0.0 4.0 0.00 0.00 0.00 85 1017.5
20260904122319 78 264 1.0 2.0 0.00 0.00 0.00 85 1019.5
20260904122026 77 209 1.0 4.0 0.00 0.00 0.00 86 1017.4
20260904121622 77 185 2.0 4.0 0.00 0.00 0.00 86 1017.3
20260904121336 77 172 1.0 2.0 0.00 0.00 0.00 86 1019.4
20260904121027 77 206 2.0 4.0 0.00 0.00 0.00 86 1017.3
20260904120524 76 0 1.0 3.0 0.00 0.00 0.00 87 1017.3
20260904120305 76 172 0.0 2.0 0.00 0.00 0.00 87 1019.3
20260904120056 76 182 0.0 3.0 0.00 0.00 0.00 87 1017.3
20260904115524 75 282 0.0 3.0 0.00 0.00 0.00 87 1017.3
20260904115249 75 210 0.0 0.0 0.00 0.00 0.00 87 1019.3
20260904115028 75 0 0.0 3.0 0.00 0.00 0.00 87 1017.2
20260904114547 74 182 1.0 2.0 0.00 0.00 0.00 87 1017.1
20260904114225 74 157 0.0 1.0 0.00 0.00 0.00 87 1019.1
20260904114024 74 157 0.0 2.0 0.00 0.00 0.00 87 1017.1
20260904113523 73 157 0.0 2.0 0.00 0.00 0.00 88 1017.0
20260904113041 72 0 0.0 2.0 0.00 0.00 0.00 87 1017.0
20260904112524 72 0 0.0 1.0 0.00 0.00 0.00 88 1016.9
20260904112132 73 174 0.0 0.0 0.00 0.00 0.00 88 1019.0
20260904112024 72 0 0.0 1.0 0.00 0.00 0.00 88 1017.0
20260904111550 72 0 0.0 1.0 0.00 0.00 0.00 88 1017.1
20260904111153 73 174 0.0 0.0 0.00 0.00 0.00 88 1019.1
20260904111024 72 0 0.0 1.0 0.00 0.00 0.00 87 1017.0
20260904110525 72 174 0.0 1.0 0.00 0.00 0.00 87 1017.0
20260904110046 72 0 0.0 1.0 0.00 0.00 0.00 87 1016.8
20260904105524 73 0 0.0 1.0 0.00 0.00 0.00 87 1016.7
20260904105025 73 174 0.0 0.0 0.00 0.00 0.00 87 1018.7
20260904104547 73 0 0.0 2.0 0.00 0.00 0.00 87 1016.5
20260904104023 73 174 0.0 2.0 0.00 0.00 0.00 87 1016.5
20260904104003 74 210 0.0 0.0 0.00 0.00 0.00 87 1018.5
20260904103525 73 0 0.0 1.0 0.00 0.00 0.00 87 1016.6
20260904103052 72 0 0.0 2.0 0.00 0.00 0.00 87 1016.5
20260904102928 73 169 0.0 0.0 0.00 0.00 0.00 87 1018.5
20260904102524 72 169 0.0 2.0 0.00 0.00 0.00 87 1016.5
20260904102024 72 169 1.0 2.0 0.00 0.00 0.00 87 1016.5
20260904101951 73 169 0.0 1.0 0.00 0.00 0.00 87 1018.6
20260904101548 72 0 0.0 0.0 0.00 0.00 0.00 87 1016.6
20260904101024 73 0 0.0 0.0 0.00 0.00 0.00 87 1016.7
20260904101007 73 169 0.0 0.0 0.00 0.00 0.00 87 1018.8
20260904100524 73 0 0.0 1.0 0.00 0.00 0.00 87 1016.7
20260904100046 73 0 0.0 1.0 0.00 0.00 0.00 87 1016.7
20260904100006 73 169 0.0 0.0 0.00 0.00 0.00 87 1018.7
20260904095525 73 169 0.0 1.0 0.00 0.00 0.00 87 1016.6
20260904095022 73 0 0.0 1.0 0.00 0.00 0.00 87 1016.6
20260904094542 74 0 0.0 2.0 0.00 0.00 0.00 87 1016.5
20260904094022 74 0 0.0 2.0 0.00 0.00 0.00 87 1016.4
20260904093824 75 169 0.0 1.0 0.00 0.00 0.00 87 1018.5
20260904093524 74 0 0.0 2.0 0.00 0.00 0.00 87 1016.4
20260904093053 74 0 0.0 1.0 0.00 0.00 0.00 87 1016.4
20260904092817 74 169 0.0 0.0 0.00 0.00 0.00 87 1018.4
20260904092524 74 0 0.0 1.0 0.00 0.00 0.00 87 1016.4
20260904092024 74 0 0.0 2.0 0.00 0.00 0.00 87 1016.3
20260904091838 74 169 0.0 2.0 0.00 0.00 0.00 87 1018.3
20260904091556 74 169 0.0 2.0 0.00 0.00 0.00 86 1016.2
20260904091023 74 206 1.0 2.0 0.00 0.00 0.00 86 1016.1
20260904090852 75 206 0.0 1.0 0.00 0.00 0.00 86 1018.2
20260904090524 75 206 0.0 2.0 0.00 0.00 0.00 86 1016.1
20260904090045 75 0 0.0 3.0 0.00 0.00 0.00 86 1016.1
20260904085523 75 0 0.0 3.0 0.00 0.00 0.00 86 1016.0
20260904085029 75 184 0.0 3.0 0.00 0.00 0.00 86 1015.9
20260904084807 75 184 1.0 2.0 0.00 0.00 0.00 86 1017.9
20260904084541 75 166 1.0 3.0 0.00 0.00 0.00 86 1015.9
20260904084025 76 175 1.0 3.0 0.00 0.00 0.00 86 1015.8
20260904083524 76 181 1.0 3.0 0.00 0.00 0.00 86 1015.8
20260904083047 76 206 1.0 3.0 0.00 0.00 0.00 86 1015.7
20260904082656 76 199 1.0 5.0 0.00 0.00 0.00 86 1017.7
20260904082524 76 199 1.0 4.0 0.00 0.00 0.00 86 1015.6
20260904082024 76 179 1.0 7.0 0.00 0.00 0.00 86 1015.6
20260904081629 76 165 1.0 5.0 0.00 0.00 0.00 86 1017.6
20260904081545 76 204 1.0 7.0 0.00 0.00 0.00 86 1015.6
20260904081024 76 188 1.0 6.0 0.00 0.00 0.00 86 1015.7
20260904080618 77 187 1.0 3.0 0.00 0.00 0.00 86 1017.7
20260904080522 76 182 1.0 6.0 0.00 0.00 0.00 86 1015.7
20260904080053 76 166 3.0 6.0 0.00 0.00 0.00 86 1015.7
20260904075600 76 206 1.0 3.0 0.00 0.00 0.00 86 1017.7
20260904075521 76 183 1.0 6.0 0.00 0.00 0.00 86 1015.6
20260904075029 76 194 2.0 6.0 0.00 0.00 0.00 86 1015.7
20260904074601 76 167 2.0 4.0 0.00 0.00 0.00 86 1015.8
20260904074028 76 202 2.0 4.0 0.00 0.00 0.00 86 1015.7
20260904073524 75 185 1.0 4.0 0.00 0.00 0.00 87 1015.8
20260904073439 76 185 1.0 3.0 0.00 0.00 0.00 87 1017.8
20260904073047 75 187 1.0 4.0 0.00 0.00 0.00 87 1015.9
20260904072524 75 178 1.0 4.0 0.00 0.00 0.00 87 1015.9
20260904072440 76 204 1.0 3.0 0.00 0.00 0.00 87 1017.9
20260904072023 75 199 2.0 4.0 0.00 0.00 0.00 87 1015.9
20260904071609 75 173 2.0 4.0 0.00 0.00 0.00 87 1015.9
20260904071441 76 174 1.0 2.0 0.00 0.00 0.00 87 1017.9
20260904071029 75 176 1.0 4.0 0.00 0.00 0.00 87 1016.0
20260904070525 75 183 2.0 4.0 0.00 0.00 0.00 87 1016.1
20260904070446 75 183 1.0 2.0 0.00 0.00 0.00 87 1018.1
20260904070042 75 188 1.0 3.0 0.00 0.00 0.00 87 1016.0
20260904065524 75 186 1.0 3.0 0.00 0.00 0.00 87 1016.1
20260904065511 75 193 0.0 2.0 0.00 0.00 0.00 87 1018.2
20260904065023 74 0 1.0 3.0 0.00 0.00 0.00 87 1016.2
20260904064605 74 175 1.0 3.0 0.00 0.00 0.00 87 1016.3
20260904064025 73 0 0.0 0.0 0.00 0.00 0.00 87 1016.4
20260904063524 73 0 0.0 0.0 0.00 0.00 0.00 87 1016.4
20260904063354 74 213 0.0 0.0 0.00 0.00 0.00 87 1018.5
20260904063053 73 0 0.0 0.0 0.00 0.00 0.00 87 1016.6
20260904062524 74 0 0.0 0.0 0.00 0.00 0.00 87 1016.7
20260904062322 74 213 0.0 0.0 0.00 0.00 0.00 87 1018.7
20260904062022 74 0 0.0 0.0 0.00 0.00 0.00 87 1016.7
20260904061540 74 0 0.0 0.0 0.00 0.00 0.00 87 1016.8
20260904061024 74 0 0.0 0.0 0.00 0.00 0.00 87 1016.9
20260904060524 74 0 0.0 0.0 0.00 0.00 0.00 87 1016.9
20260904060209 74 213 0.0 0.0 0.00 0.00 0.00 87 1019.0
20260904060052 74 0 0.0 0.0 0.00 0.00 0.00 87 1016.9
20260904055526 74 0 0.0 0.0 0.00 0.00 0.00 87 1017.0
20260904055147 74 213 0.0 0.0 0.00 0.00 0.00 87 1019.1
20260904055025 74 0 0.0 0.0 0.00 0.00 0.00 87 1017.0
20260904054547 74 0 0.0 0.0 0.00 0.00 0.00 87 1017.3
20260904054203 75 213 0.0 0.0 0.00 0.00 0.00 87 1019.3
20260904054024 74 0 0.0 0.0 0.00 0.00 0.00 87 1017.3
20260904053525 74 0 0.0 0.0 0.00 0.00 0.00 87 1017.3
20260904053134 75 213 0.0 0.0 0.00 0.00 0.00 87 1019.3
20260904053058 74 0 0.0 0.0 0.00 0.00 0.00 87 1017.3
20260904052523 74 0 0.0 0.0 0.00 0.00 0.00 87 1017.3
20260904052152 75 213 0.0 0.0 0.00 0.00 0.00 87 1019.4
20260904052025 74 0 0.0 0.0 0.00 0.00 0.00 87 1017.4
20260904051542 74 0 0.0 0.0 0.00 0.00 0.00 87 1017.3
20260904051157 75 213 0.0 0.0 0.00 0.00 0.00 87 1019.5
20260904051021 74 0 0.0 0.0 0.00 0.00 0.00 87 1017.5
20260904050527 74 0 0.0 0.0 0.00 0.00 0.00 87 1017.5
20260904050151 75 213 0.0 0.0 0.00 0.00 0.00 87 1019.5
20260904050052 74 0 0.0 0.0 0.00 0.00 0.00 87 1017.5
20260904045525 74 0 0.0 0.0 0.00 0.00 0.00 87 1017.5
20260904045158 75 213 0.0 0.0 0.00 0.00 0.00 87 1019.6
20260904045025 74 0 0.0 0.0 0.00 0.00 0.00 87 1017.5
20260904044556 75 0 0.0 0.0 0.00 0.00 0.00 87 1017.5
20260904044141 75 213 0.0 0.0 0.00 0.00 0.00 87 1019.6
20260904044024 75 0 0.0 0.0 0.00 0.00 0.00 87 1017.5
20260904043525 75 0 0.0 0.0 0.00 0.00 0.00 87 1017.5
20260904043203 75 213 0.0 0.0 0.00 0.00 0.00 87 1019.4
20260904043048 75 0 0.0 0.0 0.00 0.00 0.00 87 1017.4
20260904042524 75 0 0.0 0.0 0.00 0.00 0.00 87 1017.4
20260904042139 75 213 0.0 0.0 0.00 0.00 0.00 87 1019.4
20260904042027 75 0 0.0 0.0 0.00 0.00 0.00 87 1017.3
20260904041547 75 0 0.0 0.0 0.00 0.00 0.00 87 1017.3
20260904041024 75 0 0.0 0.0 0.00 0.00 0.00 87 1017.2
20260904040528 75 0 0.0 0.0 0.00 0.00 0.00 87 1017.2
20260904040051 75 0 0.0 0.0 0.00 0.00 0.00 87 1017.2
20260904035958 76 213 0.0 0.0 0.00 0.00 0.00 87 1019.2
20260904035524 75 0 0.0 0.0 0.00 0.00 0.00 87 1017.2
20260904035027 75 0 0.0 0.0 0.00 0.00 0.00 87 1017.1
20260904034541 75 0 0.0 0.0 0.00 0.00 0.00 87 1017.2
20260904034022 75 0 0.0 0.0 0.00 0.00 0.00 87 1017.1
20260904033925 76 213 0.0 0.0 0.00 0.00 0.00 87 1019.1
20260904033526 75 0 0.0 0.0 0.00 0.00 0.00 87 1017.1
20260904033058 75 0 0.0 0.0 0.00 0.00 0.00 86 1017.2
20260904032524 76 0 0.0 0.0 0.00 0.00 0.00 86 1017.2
20260904032025 76 0 0.0 0.0 0.00 0.00 0.00 86 1017.3
20260904031830 76 213 0.0 0.0 0.00 0.00 0.00 86 1019.2
20260904031603 76 0 0.0 0.0 0.00 0.00 0.00 86 1017.2
20260904031031 76 0 0.0 0.0 0.00 0.00 0.00 86 1017.2
20260904030524 76 0 0.0 0.0 0.00 0.00 0.00 86 1017.3
20260904030043 76 0 0.0 0.0 0.00 0.00 0.00 86 1017.3
20260904025709 77 213 0.0 0.0 0.00 0.00 0.00 86 1019.3
20260904025524 76 0 0.0 0.0 0.00 0.00 0.00 86 1017.3
20260904025025 76 0 0.0 0.0 0.00 0.00 0.00 86 1017.3
20260904024652 77 213 0.0 0.0 0.00 0.00 0.00 86 1019.2
20260904024543 77 0 0.0 0.0 0.00 0.00 0.00 86 1017.2
20260904024024 77 0 0.0 0.0 0.00 0.00 0.00 86 1017.3
20260904023701 77 213 0.0 0.0 0.00 0.00 0.00 86 1019.3
20260904023524 77 0 0.0 0.0 0.00 0.00 0.00 86 1017.2
20260904023053 77 0 0.0 0.0 0.00 0.00 0.00 86 1017.2
20260904022709 78 213 0.0 0.0 0.00 0.00 0.00 86 1019.2
20260904022524 77 0 0.0 0.0 0.00 0.00 0.00 85 1017.3
20260904022024 77 0 0.0 0.0 0.00 0.00 0.00 85 1017.3
20260904021716 78 213 0.0 0.0 0.00 0.00 0.00 85 1019.2
20260904021552 77 0 0.0 0.0 0.00 0.00 0.00 85 1017.1
20260904021027 78 0 0.0 1.0 0.00 0.00 0.00 85 1017.3
20260904020650 78 213 0.0 0.0 0.00 0.00 0.00 85 1019.3
20260904020524 78 0 0.0 1.0 0.00 0.00 0.00 85 1017.3
20260904020046 78 0 0.0 1.0 0.00 0.00 0.00 84 1017.3
20260904015657 79 213 0.0 0.0 0.00 0.00 0.00 84 1019.3
20260904015525 78 0 0.0 1.0 0.00 0.00 0.00 84 1017.3
20260904015026 79 0 0.0 1.0 0.00 0.00 0.00 84 1017.2
20260904014623 79 213 0.0 0.0 0.00 0.00 0.00 84 1019.3
20260904014544 79 213 0.0 1.0 0.00 0.00 0.00 84 1017.2
20260904014024 79 0 0.0 0.0 0.00 0.00 0.00 84 1017.2
20260904013643 79 213 0.0 0.0 0.00 0.00 0.00 84 1019.1
20260904013528 79 0 0.0 0.0 0.00 0.00 0.00 83 1017.1
20260904013051 79 0 0.0 0.0 0.00 0.00 0.00 83 1017.1
20260904012526 79 0 0.0 1.0 0.00 0.00 0.00 83 1017.1
20260904012026 80 0 0.0 1.0 0.00 0.00 0.00 83 1017.0
20260904011546 80 213 0.0 1.0 0.00 0.00 0.00 82 1016.9
20260904011505 80 213 0.0 0.0 0.00 0.00 0.00 82 1018.9
20260904011024 80 0 0.0 0.0 0.00 0.00 0.00 82 1016.8
20260904010527 80 0 0.0 0.0 0.00 0.00 0.00 82 1016.7
20260904010444 81 213 0.0 0.0 0.00 0.00 0.00 82 1018.7
20260904010054 80 0 0.0 1.0 0.00 0.00 0.00 81 1016.6
20260904005523 81 0 0.0 1.0 0.00 0.00 0.00 81 1016.6
20260904005428 81 213 0.0 0.0 0.00 0.00 0.00 81 1018.6
20260904005025 81 0 0.0 1.0 0.00 0.00 0.00 81 1016.6
20260904004548 81 0 0.0 1.0 0.00 0.00 0.00 80 1016.4
20260904004436 82 213 0.0 0.0 0.00 0.00 0.00 80 1018.4
20260904004024 81 0 0.0 1.0 0.00 0.00 0.00 79 1016.5
20260904003523 82 0 0.0 1.0 0.00 0.00 0.00 78 1016.4
20260904003430 82 213 0.0 0.0 0.00 0.00 0.00 78 1018.4
20260904003052 82 0 0.0 1.0 0.00 0.00 0.00 77 1016.2
20260904002529 83 213 0.0 1.0 0.00 0.00 0.00 76 1016.2
20260904002407 83 213 0.0 0.0 0.00 0.00 0.00 76 1018.2
20260904002025 83 0 0.0 2.0 0.00 0.00 0.00 75 1016.1
20260904001550 83 213 0.0 2.0 0.00 0.00 0.00 75 1016.0
20260904001024 84 213 0.0 2.0 0.00 0.00 0.00 74 1016.0
20260904000524 84 213 0.0 1.0 0.00 0.00 0.00 73 1016.0
20260904000329 85 213 0.0 0.0 0.00 0.00 0.00 73 1018.1
20260904000047 85 0 0.0 1.0 0.00 0.00 0.00 71 1015.9
20260903235523 86 0 0.0 2.0 0.00 0.00 0.00 69 1015.9
20260903235347 87 213 0.0 0.0 0.00 0.00 0.00 67 1017.9
20260903235022 87 213 0.0 2.0 0.00 0.00 0.00 66 1015.8
20260903234542 88 213 0.0 2.0 0.00 0.00 0.00 63 1015.8
20260903234024 89 0 0.0 3.0 0.00 0.00 0.00 61 1015.7
20260903233525 90 176 1.0 4.0 0.00 0.00 0.00 59 1015.8
20260903233214 90 187 1.0 3.0 0.00 0.00 0.00 58 1017.8
20260903233053 90 183 1.0 4.0 0.00 0.00 0.00 58 1015.7
20260903232525 91 166 1.0 4.0 0.00 0.00 0.00 56 1015.6
20260903232225 91 193 1.0 6.0 0.00 0.00 0.00 56 1017.6
20260903232025 91 0 1.0 5.0 0.00 0.00 0.00 56 1015.6
20260903231551 91 177 2.0 7.0 0.00 0.00 0.00 55 1015.7
20260903231238 92 169 1.0 6.0 0.00 0.00 0.00 54 1017.7
20260903231024 92 141 1.0 7.0 0.00 0.00 0.00 54 1015.6
20260903230524 92 174 1.0 7.0 0.00 0.00 0.00 54 1015.5
20260903230213 93 98 1.0 6.0 0.00 0.00 0.00 54 1017.6
20260903230047 93 0 1.0 7.0 0.00 0.00 0.00 53 1015.5
20260903225521 93 137 2.0 7.0 0.00 0.00 0.00 53 1015.5
20260903225227 93 143 2.0 8.0 0.00 0.00 0.00 53 1017.6
20260903225024 93 145 1.0 10.0 0.00 0.00 0.00 52 1015.5
20260903224545 93 141 3.0 10.0 0.00 0.00 0.00 52 1015.4
20260903224242 94 149 4.0 9.0 0.00 0.00 0.00 51 1017.5